Watford City, ND

8:15 AM CST on December 08, 2019 (GMT -0600)
Watford City

Weather History for KS25 - October, 2019

Change the Weather History Date:

Tuesday, October 22, 2019

  Actual Average (KISN) Record (KISN)
Temperature  
Mean Temperature 32 °F -  
Max Temperature 46 °F 55 °F 80 °F (1901)
Min Temperature 19 °F 28 °F 8 °F (2002)
Degree Days  
Heating Degree Days 32    
Moisture  
Dew Point 23 °F    
Average Humidity 89    
Maximum Humidity 100    
Minimum Humidity 50    
Precipitation  
Precipitation 0.00 in - - ()
Sea Level Pressure  
Sea Level Pressure 29.92 in    
Wind  
Wind Speed 3 mph (SW)    
Max Wind Speed 13 mph    
Max Gust Speed -    
Visibility 10 miles    
Events      
Averages and records for this station are not official NWS values.
T = Trace of Precipitation, MM = Missing Value Source: NWS Daily Summary

Daily Weather History Graph

Daily Weather History Graph

Search for Another Location

Airport or City:

Astronomy

Oct. 22, 2019 Rise Set
Actual Time 8:22 AM CDT 6:52 PM CDT
Civil Twilight 7:50 AM CDT 7:23 PM CDT
Nautical Twilight 7:14 AM CDT 7:59 PM CDT
Astronomical Twilight 6:38 AM CDT 8:35 PM CDT
Moon 12:57 AM CDT (10/22) 4:36 PM CDT (10/22)
Length of Visible Light 11h 33m
Length of Day
10h 29m
Last Quarter, 37% of the Moon is Illuminated
Oct 22
Last Quarter
Oct 27
New
Nov 4
First Quarter
Nov 12
Full
Nov 19
Last Quarter

Hourly Weather History & Observations

Time (CDT) Temp. Windchill Dew Point Humidity Pressure Visibility Wind Dir Wind Speed Gust Speed Precip Events Conditions
12:15 AM 24.8 °F 20.5 °F 24.8 °F 100% 29.98 in 10.0 mi SW 3.5 mph - N/A   Mostly Cloudy
12:35 AM 23.0 °F 18.4 °F 23.0 °F 100% 29.98 in 10.0 mi SW 3.5 mph - N/A   Overcast
12:55 AM 24.8 °F 19.1 °F 23.0 °F 93% 29.97 in 10.0 mi SW 4.6 mph - N/A   Mostly Cloudy
1:15 AM 24.8 °F 19.1 °F 23.0 °F 93% 29.97 in 10.0 mi WSW 4.6 mph - N/A   Partly Cloudy
1:35 AM 23.0 °F 15.8 °F 23.0 °F 100% 29.97 in 10.0 mi SW 5.8 mph - N/A   Clear
1:55 AM 23.0 °F - 23.0 °F 100% 29.96 in 10.0 mi Calm Calm - N/A   Clear
2:15 AM 23.0 °F - 21.2 °F 93% 29.96 in 10.0 mi Calm Calm - N/A   Clear
2:35 AM 23.0 °F 18.4 °F 23.0 °F 100% 29.96 in 10.0 mi SW 3.5 mph - N/A   Clear
2:55 AM 23.0 °F 17.0 °F 23.0 °F 100% 29.96 in 10.0 mi WSW 4.6 mph - N/A   Clear
3:15 AM 23.0 °F 18.4 °F 23.0 °F 100% 29.95 in 10.0 mi SW 3.5 mph - N/A   Clear
3:35 AM 24.8 °F 20.5 °F 23.0 °F 93% 29.95 in 10.0 mi SW 3.5 mph - N/A   Clear
3:55 AM 23.0 °F 17.0 °F 21.2 °F 93% 29.94 in 10.0 mi WSW 4.6 mph - N/A   Partly Cloudy
4:15 AM 24.8 °F 16.9 °F 24.8 °F 100% 29.94 in 10.0 mi SW 6.9 mph - N/A   Partly Cloudy
4:35 AM 24.8 °F - 23.0 °F 93% 29.94 in 10.0 mi Calm Calm - N/A   Clear
4:55 AM 23.0 °F - 21.2 °F 93% 29.93 in 10.0 mi Calm Calm - N/A   Clear
5:15 AM 23.0 °F - 23.0 °F 100% 29.93 in 10.0 mi Calm Calm - N/A   Clear
5:35 AM 23.0 °F - 23.0 °F 100% 29.92 in 10.0 mi Calm Calm - N/A   Clear
5:55 AM 23.0 °F - 21.2 °F 93% 29.92 in 10.0 mi Calm Calm - N/A   Partly Cloudy
6:15 AM 21.2 °F - 21.2 °F 100% 29.92 in 10.0 mi Calm Calm - N/A   Partly Cloudy
6:35 AM 19.4 °F - 19.4 °F 100% 29.91 in 10.0 mi Calm Calm - N/A   Clear
6:55 AM 21.2 °F - 19.4 °F 93% 29.91 in 10.0 mi Calm Calm - N/A   Clear
7:35 AM 23.0 °F - 23.0 °F 100% 29.92 in 10.0 mi Calm Calm - N/A   Clear
7:55 AM - - - N/A% 29.91 in 9.0 mi SW 3.5 mph - N/A   Clear
8:15 AM 21.2 °F 14.9 °F 21.2 °F 100% 29.91 in 10.0 mi WSW 4.6 mph - N/A   Clear
8:35 AM 21.2 °F 16.4 °F 21.2 °F 100% 29.91 in 10.0 mi SW 3.5 mph - N/A   Clear
9:15 AM 24.8 °F 19.1 °F 24.8 °F 100% 29.91 in 10.0 mi SW 4.6 mph - N/A   Clear
12:35 PM 42.8 °F - 28.4 °F 57% 29.87 in 10.0 mi Calm Calm - N/A   Clear
12:55 PM 44.6 °F 43.1 °F 28.4 °F 53% 29.85 in 10.0 mi Variable 3.5 mph - N/A   Clear
1:15 PM 44.6 °F - 28.4 °F 53% 29.85 in 10.0 mi Calm Calm - N/A   Clear
1:35 PM 46.4 °F 44.3 °F 28.4 °F 50% 29.85 in 10.0 mi NW 4.6 mph - N/A   Clear
10:15 PM 39.2 °F 31.6 °F 26.6 °F 61% 29.74 in 10.0 mi ESE 12.7 mph - N/A   Mostly Cloudy
10:35 PM 39.2 °F 31.6 °F 26.6 °F 61% 29.74 in 10.0 mi East 12.7 mph - N/A   Mostly Cloudy